Other Public Products
Issued by NWS Charleston, SC

Current Version | Previous Version | Graphics & Text | Print | Product List | Glossary On
Versions: 1 2 3 4 5 6 7 8 9 10 11 12 13 14 15 16 17 18 19 20 21 22 23 24 25 26 27 28 29 30 31 32 33 34 35 36 37 38 39 40 41 42 43 44 45 46 47 48 49 50
000
FPUS82 KCHS 271127
OPUCHS

TEST...KCHS/KSAV Gateway Observations...TEST
National Weather Service Charleston SC
700 AM EDT THU JUL 27 2017

NOTE: "fair" indicates few or no clouds below 12,000 feet with no
significant weather and/or obstructions to visibility.

SCZ050-WAZ558-NCZ071-TXZ119-213-PAZ071-DCZ001-FLZ074-172-MI076-
NYZ176-178-MAZ016-IL014-TNZ027-NJZ106-GAZ044-MD014-271200-

...Gateway Observations for Charleston International...

CITY           SKY/WX    TMP DP  RH WIND       PRES   REMARKS
Chas Airport   PTCLDY    74  73  97 CALM      30.05S FOG
Seattle        CLOUDY    58  55  90 SW8       30.11R
Charlotte      MOCLDY    75  73  93 S8        30.10S
Dallas DFW     PTCLDY    81  72  74 S10       30.00R
Dallas Love    PTCLDY    83  71  67 SW6       30.01R
Philladelphia  CLOUDY    69  64  84 S5        30.05F
Wash National  CLOUDY    73  68  84 S12       30.05S
Baltimore      MOCLDY    71  69  93 VRB6      30.03F
Miami          PTCLDY    80  76  87 CALM      30.02S
Detroit        CLOUDY    70  67  90 CALM      29.96S
Newark         CLOUDY    66  60  81 W6        30.06S
Laguardia      PTSUNNY   68  61  78 SW6       30.05F
J F K          CLOUDY    68  63  84 SW6       30.07S
Boston Logan   CLOUDY    63  59  87 SW12      30.03F
Ft. Lauderdale PTCLDY    83  76  79 E7        30.01S HX  91
Chicago O`Hare MOCLDY    74  70  87 N6        29.94R
Chicago Midway MOCLDY    74  72  93 NW7       29.93S FOG
Houston Bush   PTCLDY    78  74  87 CALM      30.02F
Houston Hobby  PTCLDY    79  74  84 CALM      30.02S
Nashville      CLOUDY    78  72  81 CALM      30.03R
Atlanta        PTCLDY    73  69  87 E3        30.09S

$$

GAZ044-118-TXZ119-213-NCZ071-DCZ001-MDZ014-506-PAZ021-071-NJZ106-
NYZ176-178-MAZ106-OHZ011-021-055-MIZ076-KYZ091-ILZ014-INZ047-
MNZ060-ONZ431-271200-

...Gateway Observations for Savannah International...

CITY           SKY/WX    TMP DP  RH WIND       PRES   REMARKS
Savannah Arpt  LGT RAIN  75  73  93 CALM      30.04S
Atlanta        PTCLDY    73  69  87 E3        30.09S
Charlotte      MOCLDY    75  73  93 S8        30.10S
Dallas DFW     PTCLDY    81  72  74 S10       30.00R
Houston Bush   PTCLDY    78  74  87 CALM      30.02F
Wash National  CLOUDY    73  68  84 S12       30.05S
Wash Dulles    CLOUDY    70  66  87 SE5       30.04F
Baltimore      MOCLDY    71  69  93 VRB6      30.03F
Philadelphia   CLOUDY    69  64  84 S5        30.05F
Newark         CLOUDY    66  60  81 W6        30.06S
Laguardia      PTSUNNY   68  61  78 SW6       30.05F
J F K          CLOUDY    68  63  84 SW6       30.07S
Boston         CLOUDY    63  59  87 SW12      30.03F
Pittsburg      CLOUDY    65  62  90 CALM      30.00F
Akron          MOCLDY    65  61  87 S3        30.00F
Cleveland      MOCLDY    68  63  84 S5        29.99S
Cincinnati     TSTM      74  73  97 CALM      29.98R
Columbus       MOCLDY    66  65  97 CALM      29.97F
Detroit        CLOUDY    70  67  90 CALM      29.96S
Chicago O`Hare MOCLDY    74  70  87 N6        29.94R
Minneapolis    CLEAR     67  60  78 N6        30.05S
Indianapolis   CLOUDY    74  72  93 W8        29.95S
Toronto Canada MOCLDY    68  64  88 W6        29.95F

$$




USA.gov is the U.S. government's official web portal to all federal, state and local government web resources and services.